{"data":{"norad_id":60290,"epoch":"2026-05-25T01:26:24.590112Z","epoch_age_seconds":66877,"freshness":"FRESH","line1":"1 60290U 24132N   26145.06000683  .00000860  00000+0  41176-4 0  9996","line2":"2 60290  53.1604  57.6539 0001143  93.7241 266.3890 15.30193635103259","mean_motion":15.30193635,"eccentricity":0.0001143,"inclination_deg":53.1604,"raan_deg":57.6539,"arg_perigee_deg":93.7241,"mean_anomaly_deg":266.389,"bstar":4.1176e-5,"rev_number":10325,"period_min":94.105737147443,"perigee_km":474.45073391412,"apogee_km":476.01741454169,"semimajor_km":6853.3710742279,"source":"CELESTRAK","updated_at":"2026-05-25T13:38:19.206123Z"}}